Regional Weather Roundup
Issued by NWS

Home | Current Version | Previous Version | Graphics & Text | Print | Product List | Glossary On
Versions: 1 2 3 4 5 6 7 8 9 10 11 12 13 14 15 16 17 18 19 20 21 22 23 24 25 26 27 28 29 30 31 32 33 34 35 36 37 38 39 40 41 42 43 44 45 46 47 48 49 50
000
ASUS45 KTFX 242310
RWRMT
MONTANA REGIONAL WEATHER ROUNDUP
NATIONAL WEATHER SERVICE GREAT FALLS MT
500 PM MDT SAT SEP 24 2016

NOTE: "FAIR" INDICATES FEW OR NO CLOUDS BELOW 12000 FEET WITH NO
SIGNIFICANT WEATHER AND/OR OBSTRUCTIONS TO VISIBILITY.

MTZ001>007-043-250000-
WEST OF THE DIVIDE

CITY           SKY/WX    TMP DP  RH WIND       PRES   REMARKS
KALISPELL      CLOUDY    63  38  39 S5        30.22R
MISSOULA       MOSUNNY   63  35  35 W14       30.26S
BUTTE          PTSUNNY   52  30  43 NW14      30.28R
MULLAN PASS    PTSUNNY   44  35  70 W8G17     30.34R
ANACONDA         N/A     54  28  37 NW9       30.28R
DEER LODGE       N/A     54  30  40 NW15G24   30.29S
EUREKA           N/A     66  28  24 SW13G18   30.20R
HAMILTON         N/A     59  32  36 NW9G16    30.30R
LIBBY            N/A     64  34  32 W5        30.23R
PLAINS           N/A     65  34  31 W8        30.26R
RONAN            N/A     63  33  32 SW12      30.27R
$$

MTZ008-052>055-250000-
SOUTHWEST MONTANA

CITY           SKY/WX    TMP DP  RH WIND       PRES   REMARKS
BOZEMAN        CLOUDY    57  38  48 NW6       30.23R
DILLON         CLOUDY    59  30  33 NW13      30.24R
W YELLOWSTONE  CLOUDY    50  27  40 NW6       30.26R
ENNIS          CLOUDY    55  28  35 N16G24    30.28R
THREE FORKS      N/A     60 -35   2 NW12      30.20R
TWIN BRIDGES     N/A     61  29  29 W10       30.21R
$$

MTZ009-010-012-014-046-048-049-054-250000-
EAST SLOPES AND CENTRAL MONTANA

CITY           SKY/WX    TMP DP  RH WIND       PRES   REMARKS
CUT BANK       CLOUDY    53  45  74 N9        30.18R
GREAT FALLS    MOSUNNY   60  36  40 NW16      30.16S
MALMSTROM AFB  CLOUDY    63  39  42 N20G35    30.16R
HELENA         CLOUDY    63  30  28 W16       30.21R
AUGUSTA          N/A     58  28  31 W24G31    30.20R
BOWMANS CRNR     N/A     57  29  34 NW20G25   30.18R
CHOTEAU          N/A     59  32  36 W14       30.20R
CONRAD           N/A     58  46  64 NW5       30.18R
FAIRFIELD      MOCLDY    57  35  44 NW15      30.17R
POWER          MOCLDY    58  38  48 N17       30.17R
RAYNESFORD     MOCLDY    59  38  45 NW15G23   30.16R
$$

MTZ011-013-016-021-045-047-050-051-250000-
NORTH CENTRAL MONTANA

CITY           SKY/WX    TMP DP  RH WIND       PRES   REMARKS
HAVRE          SUNNY     61  44  53 NW21G33   30.09R
LEWISTOWN      CLOUDY    50  45  83 NW14      30.13R
N BAR RANCH    CLOUDY    52  43  71 NW21G30   30.10R
CHINOOK          N/A     61  45  55 NW14G23   30.05R
DENTON         MOCLDY    56  45  65 NW18G30   30.09R
GEYSER           N/A     58  28  31 W24G31    30.20R
GRASS RANGE    CLOUDY    56  43  61 NW22G31   30.05R
JUDITH GAP     MOCLDY    55  37  52 N29G45    30.13R
ROY            MOCLDY    58  47  65 MISG      30.04R
STANFORD       MOCLDY    53  39  57 NW20G26   30.15R
WINIFRED       MOCLDY    57  44  60 MISG      30.09R
$$

MTZ017>020-022>027-061-062-250000-
NORTHEAST MONTANA

CITY           SKY/WX    TMP DP  RH WIND       PRES   REMARKS
GLASGOW        CLOUDY    53  46  77 NW23G33   29.97R
JORDAN           N/A     52  49  89 NW14G23   29.98R
SIDNEY         LGT RAIN  53  51  93 N26G33    29.78R FOG
WOLF POINT     LGT RAIN  55  50  83 N15       29.91R
PLENTYWOOD       N/A    N/A N/A N/A N20G33    29.84S
POPLAR           N/A    N/A N/A N/A NW21      29.88R
SCOBEY           N/A     51  45  80 N20       29.89R
$$

MTZ028>42-056>058-250000-
SOUTHCENTRAL AND SOUTHEAST MONTANA

CITY           SKY/WX    TMP DP  RH WIND       PRES   REMARKS
BAKER          LGT RAIN  52  32  46 NW26G35   29.74S
BILLINGS       CLOUDY    60  35  39 NW28G39   30.07R
LIVINGSTON     CLOUDY    57  35  43 W13       30.19R
MILES CITY     LGT RAIN  51  47  86 NW17      29.93R
BIG TIMBER     CLOUDY    57  36  44 W20       30.20R
EKALAKA          N/A     47  45  93 W21       29.82R
FORSYTH          N/A    N/A N/A N/A W16       29.98R
HARLOWTON      MOCLDY    55  38  51 N25G31    30.13R
LAUREL           N/A     61  34  36 W13       30.09R
ROUNDUP          N/A     57  41  55 W20       29.97R
$$

REGIONAL REPORTS...DAKOTAS

CITY           SKY/WX    TMP DP  RH WIND       PRES   REMARKS
WILLISTON      CLOUDY    55  52  89 N31G38    29.75S
MINOT          MOSUNNY   77  62  59 S10       29.64S
DICKINSON      PTSUNNY   65  49  56 S15       29.67S
CROSBY         CLOUDY    54  54 100 N23G29    29.79F FOG
WATFORD CITY   CLOUDY    54  54 100 N23G32    29.72S
BISMARCK       MOSUNNY   76  50  40 SW15G23   29.70R
GRAND FORKS    CLOUDY    74  65  73 SE20      29.77S
FARGO          CLOUDY    75  65  70 SE16G25   29.80R
BUFFALO SD       N/A     52  49  89 W31G41    29.71R
RAPID CITY     SUNNY     57  38  48 W17       29.91R
$$

REGIONAL REPORTS...WYOMING/IDAHO/WASHINGTON

CITY           SKY/WX    TMP DP  RH WIND       PRES   REMARKS
GILLETTE       LGT RAIN  44  43  96 W15       30.04R
SHERIDAN       LGT RAIN  49  45  86 NW9       30.08R
BUFFALO WY     CLOUDY    47  42  83 S5        30.10R
CODY           CLOUDY    51  40  65 SW3       30.18R
YELLOWSTONE LA   N/A     48  29  47 VRB7G17   30.28R
IDAHO FALLS    MOSUNNY   60  42  51 SW12      30.23R
SALMON         SUNNY     61  32  33 W12       30.26S
BOISE          SUNNY     67  33  28 W10       30.28F
SPOKANE        MOSUNNY   65  33  30 W14       30.29F
$$

REGIONAL REPORTS...ALBERTA

CITY           SKY/WX    TMP DP  RH WIND       PRES   REMARKS
EDMONTON       MOSUNNY   59  30  33 NW14G22   30.07R
CALGARY        MOSUNNY   59  36  41 W5        30.13S
LETHBRIDGE     PTSUNNY   59  39  47 W7        30.15F
MEDICINE HAT   MOSUNNY   61  36  39 NW13G20   30.10R
WATERTON GATE    N/A     57  32  38 SW10G17     N/A
CARDSTON         N/A     59  39  47 W2          N/A
MILK RIVER       N/A     59  41  51 N14G20      N/A
ONEFOUR          N/A     57  43  58 NW21G26     N/A
$$

REGIONAL REPORTS...SASKATCHEWAN

CITY           SKY/WX    TMP DP  RH WIND       PRES   REMARKS
SWIFT CURRENT  CLOUDY    54  46  76 N17G25    29.98S
REGINA         LGT RAIN  52  48  87 NW21G32   29.89R
SASKATOON      CLOUDY    55  48  76 NW9       29.96R
CYPRESS HILLS    N/A     50  37  62 NW13G23     N/A
VAL MARIE        N/A     55  46  71 N20G28      N/A
ROCKGLEN         N/A     48  46  93 N23G35      N/A
ASSINIBOIA       N/A     59  34  38 W17G23      N/A
$$



USA.gov is the U.S. government's official web portal to all federal, state and local government web resources and services.